Regional Weather Roundup
Issued by NWS Sterling, VA

Home | Current Version | Previous Version | Text Only | Print | Product List | Glossary Off
Versions: 1 2 3 4 5 6 7 8 9 10 11 12 13 14 15 16 17 18 19 20 21 22 23 24 25 26 27 28 29 30 31 32 33 34 35 36 37 38 39 40 41 42 43 44 45 46 47 48 49 50

000
ASUS41 KLWX 160910
RWRLWX

REGIONAL WEATHER ROUNDUP
NATIONAL WEATHER SERVICE BALTIMORE MD/WASHINGTON DC
500 AM EDT TUE SEP 16 2014

Note: "FAIR" indicates few or no clouds below 12,000 feet
with no significant weather and/or obstructions to visibility.
 TC=TEMPERATURE CELSIUS

 * =Non NWS site. Station does not report precipitation (e.g. rain,
    snow, etc.), thunder, or fog.

DCZ001-MDZ009-015-VAZ040>042-051-053>054-161000-
WASHINGTON METRO

CITY           SKY/WX    TMP DP  RH WIND       PRES   REMARKS
WASHINGTON NAT MOCLDY    67  60  78 SW3       30.01S
DULLES         PTCLDY    57  57 100 CALM      30.01S
ANDREWS AFB    MOCLDY    64  62  92 W6        30.01R
QUANTICO       PTCLDY    64  61  90 CALM      30.02R
COLLEGE PARK*  PTCLDY    63  61  94 CALM      30.00S
LEESBURG*      CLEAR     59  59 100 CALM      30.02S
MANASSAS*      CLEAR     61  59  94 CALM      30.02R
GAITHERSBURG*  CLEAR     59  57  94 CALM      30.05R

$$

MDZ006>007-011-014-161000-
BALTIMORE METRO

CITY           SKY/WX    TMP DP  RH WIND       PRES   REMARKS
BWI AIRPORT    PTCLDY    61  58  90 SW3       29.99F
MD SCIENCE CTR   N/A     63  60  90 MISG      30.00S
MARTIN STATE   CLOUDY    63  63 100 CALM      30.00F
ANNAPOLIS      CLOUDY    65  61  87 SW5       29.99S
FORT MEADE*    CLEAR     55  55 100 CALM      30.02F

$$

MDZ012-015-019>023-161000-
MARYLAND EASTERN SHORE

CITY           SKY/WX    TMP DP  RH WIND       PRES   REMARKS
OCEAN CITY     CLOUDY    64  60  87 CALM      30.02F
SALISBURY        N/A    N/A N/A N/A MISG        N/A
BAY BRIDGE AP*   N/A     68  63  83 SW8       29.99S
CAMBRIDGE*     MOCLDY    63  61  94 SE3       29.99F
EASTON*        MOCLDY    64  64 100 CALM      30.02F

$$

MDZ017>025-161000-
SOUTHERN MARYLAND

CITY           SKY/WX    TMP DP  RH WIND       PRES   REMARKS
PATUXENT RIVER MOCLDY    68  62  81 SW8       30.00F
ST INIGOES     CLOUDY    68  61  78 S9        30.00S
LEONARDTOWN*   CLOUDY    66  61  82 SW6       30.01F

$$

MDZ003>005-161000-
NORTH CENTRAL MARYLAND

CITY           SKY/WX    TMP DP  RH WIND       PRES   REMARKS
FREDERICK*     FOG       55  55 100 CALM      30.03S VSB 3/4
HAGERSTOWN APT PTCLDY    59  54  83 CALM      30.01S
WESTMINSTER*   PTCLDY    61  57  88 W3        30.01S

$$

MDZ501>502-161000-
WESTERN MARYLAND

CITY           SKY/WX    TMP DP  RH WIND       PRES   REMARKS
OAKLAND*       NOT AVBL
CUMBERLAND*    MOCLDY    57  54  88 CALM      30.07S

$$

VAZ025>031-161000-
SHENANDOAH VALLEY

CITY           SKY/WX    TMP DP  RH WIND       PRES   REMARKS
WINCHESTER*    CLEAR     55  54  94 CALM      30.02S
STAUNTON*      CLOUDY    59  57  91 CALM      30.05S

$$

WVZ021-048>050-054>055-161000-
EASTERN WEST VIRGINIA PANHANDLE

CITY           SKY/WX    TMP DP  RH WIND       PRES   REMARKS
MARTINSBURG    PTCLDY    56  53  90 VRB3      30.02S
PETERSBURG*    LGT RAIN  59  56  92 NE3       30.03S

$$

VAZ036>039-050-161000-
CENTRAL FOOTHILLS

CITY           SKY/WX    TMP DP  RH WIND       PRES   REMARKS
CHARLOTTESVILL PTCLDY    63  62  97 S5        30.01F FOG
ORANGE*        CLEAR     61  59  94 S3        30.03S FOG

$$

VAZ055>057-161000-
NORTH AND CENTRAL PIEDMONT

CITY           SKY/WX    TMP DP  RH WIND       PRES   REMARKS
FREDERICKSBRG* CLOUDY    64  64 100 CALM      30.01R
STAFFORD*      PTCLDY    60  60 100 CALM      30.05S FOG

$$

NCZ024-NYZ072-PAZ021-071-VAZ022-071-161000-
OTHER REGIONAL OBSERVATIONS

CITY           SKY/WX    TMP DP  RH WIND       PRES   REMARKS
NEW YORK CITY  MOCLDY    63  52  67 VRB3      30.05F
PHILADELPHIA   CLOUDY    62  55  77 E3        30.00F
PITTSBURGH     LGT RAIN  56  55  97 NW9       30.06S FOG
ROANOKE        PTCLDY    64  60  87 SW5       30.07S
RICHMOND       CLOUDY    66  63  90 SW5       30.02S
RALEIGH        MOCLDY    67  65  93 CALM      30.05R

$$

ANZ530>537-161000-
MARINE OBSERVATIONS

STATION/POSITION TIME  TEMP    WIND        PRES
                       AIR SEA DIR/SP/G
                 (UTC) (F)     (DEG/KT/KT) (MB)
THOMAS PT LIGHT  0900   67 74  250/ 11/ 13 1016.8R
BALT KEY BRIDGE  0900   64     200/  5/  6 1015.4F
COVE POINT       0900   68     230/ 10/ 12 1015.6R
LEWISETTA        0900   67 73  220/ 11/ 13 1015.4S
SOLOMONS ISLAND  0900      76                N/A
PINEY POINT      0900          240/ 10/ 11   N/A

$$




USA.gov is the U.S. government's official web portal to all federal, state and local government web resources and services.